Time,TemperatureF,DewpointF,PressureIn,WindDirection,WindDirectionDegrees,WindSpeedMPH,WindSpeedGustMPH,Humidity,HourlyPrecipIn,Conditions,Clouds,dailyrainin,SoftwareType,DateUTC
2013-03-16 00:03:00,23.0,-99.9,30.68,NNE,28,13.0,19.0,-999,-99.99,,,-99.99,,2013-03-16 04:03:00,
2013-03-16 00:13:00,23.0,-99.9,29.98,NNE,28,13.0,19.0,-999,-99.99,,,-99.99,,2013-03-16 04:13:00,
2013-03-16 00:23:00,23.0,-99.9,29.98,NNE,28,13.0,19.0,-999,-99.99,,,-99.99,,2013-03-16 04:23:00,
2013-03-16 00:33:00,22.0,-99.9,29.97,NNE,32,13.0,22.0,-999,-99.99,,,-99.99,,2013-03-16 04:33:00,
2013-03-16 00:43:00,22.0,-99.9,29.97,NNE,32,13.0,22.0,-999,-99.99,,,-99.99,,2013-03-16 04:43:00,
2013-03-16 00:53:00,22.0,-99.9,30.67,NNE,32,13.0,22.0,-999,-99.99,,,-99.99,,2013-03-16 04:53:00,
2013-03-16 01:03:00,22.0,-99.9,30.66,NE,40,17.0,20.0,-999,-99.99,,,-99.99,,2013-03-16 05:03:00,
2013-03-16 01:12:00,22.0,-99.9,29.96,NE,40,17.0,20.0,-999,-99.99,,,-99.99,,2013-03-16 05:12:00,
2013-03-16 01:22:00,22.0,-99.9,29.96,NE,40,17.0,20.0,-999,-99.99,,,-99.99,,2013-03-16 05:22:00,
2013-03-16 01:32:00,22.0,-99.9,30.67,NE,34,16.0,20.0,-999,-99.99,,,-99.99,,2013-03-16 05:32:00,
2013-03-16 01:42:00,22.0,-99.9,29.97,NE,34,16.0,20.0,-999,-99.99,,,-99.99,,2013-03-16 05:42:00,
2013-03-16 01:53:00,22.0,-99.9,30.67,NE,34,16.0,20.0,-999,-99.99,,,-99.99,,2013-03-16 05:53:00,
2013-03-16 02:02:00,23.0,-99.9,30.67,NE,40,12.0,17.0,-999,-99.99,,,-99.99,,2013-03-16 06:02:00,
2013-03-16 02:12:00,23.0,-99.9,29.97,NE,40,12.0,17.0,-999,-99.99,,,-99.99,,2013-03-16 06:12:00,
2013-03-16 02:22:00,23.0,-99.9,29.97,NE,40,12.0,17.0,-999,-99.99,,,-99.99,,2013-03-16 06:22:00,
2013-03-16 02:32:00,22.0,-99.9,30.66,NE,50,14.0,18.0,-999,-99.99,,,-99.99,,2013-03-16 06:32:00,
2013-03-16 02:42:00,22.0,-99.9,29.96,NE,50,14.0,18.0,-999,-99.99,,,-99.99,,2013-03-16 06:42:00,
2013-03-16 02:52:00,22.0,-99.9,29.96,NE,50,14.0,18.0,-999,-99.99,,,-99.99,,2013-03-16 06:52:00,
2013-03-16 03:02:00,22.0,-99.9,30.66,ENE,57,17.0,19.0,-999,-99.99,,,-99.99,,2013-03-16 07:02:00,
2013-03-16 03:12:00,22.0,-99.9,29.96,ENE,57,17.0,19.0,-999,-99.99,,,-99.99,,2013-03-16 07:12:00,
2013-03-16 03:22:00,22.0,-99.9,30.65,NE,42,15.0,22.0,-999,-99.99,,,-99.99,,2013-03-16 07:22:00,
2013-03-16 03:32:00,22.0,-99.9,29.95,NE,42,15.0,22.0,-999,-99.99,,,-99.99,,2013-03-16 07:32:00,
2013-03-16 03:42:00,22.0,-99.9,29.95,NE,42,15.0,22.0,-999,-99.99,,,-99.99,,2013-03-16 07:42:00,
2013-03-16 03:53:00,22.0,-99.9,30.65,NE,42,15.0,22.0,-999,-99.99,,,-99.99,,2013-03-16 07:53:00,
2013-03-16 04:03:00,21.0,-99.9,30.65,ENE,64,12.0,19.0,-999,-99.99,,,-99.99,,2013-03-16 08:03:00,
2013-03-16 04:12:00,21.0,-99.9,29.95,ENE,64,12.0,19.0,-999,-99.99,,,-99.99,,2013-03-16 08:12:00,
2013-03-16 04:23:00,21.0,-99.9,30.63,ENE,72,16.0,21.0,-999,-99.99,,,-99.99,,2013-03-16 08:23:00,
2013-03-16 04:33:00,21.0,-99.9,29.93,ENE,72,16.0,21.0,-999,-99.99,,,-99.99,,2013-03-16 08:33:00,
2013-03-16 04:42:00,21.0,-99.9,30.63,ENE,72,16.0,21.0,-999,-99.99,,,-99.99,,2013-03-16 08:42:00,
2013-03-16 04:52:00,21.0,-99.9,29.93,ENE,72,16.0,21.0,-999,-99.99,,,-99.99,,2013-03-16 08:52:00,
2013-03-16 05:02:00,20.0,-99.9,30.62,East,84,12.0,19.0,-999,-99.99,,,-99.99,,2013-03-16 09:02:00,
2013-03-16 05:12:00,20.0,-99.9,29.92,East,84,12.0,19.0,-999,-99.99,,,-99.99,,2013-03-16 09:12:00,
2013-03-16 05:22:00,20.0,-99.9,30.62,ENE,78,13.0,19.0,-999,-99.99,,,-99.99,,2013-03-16 09:22:00,
2013-03-16 05:33:00,20.0,-99.9,29.92,ENE,78,13.0,19.0,-999,-99.99,,,-99.99,,2013-03-16 09:33:00,
2013-03-16 05:43:00,20.0,-99.9,29.92,ENE,78,13.0,19.0,-999,-99.99,,,-99.99,,2013-03-16 09:43:00,
2013-03-16 05:53:00,20.0,-99.9,29.92,ENE,78,13.0,19.0,-999,-99.99,,,-99.99,,2013-03-16 09:53:00,
2013-03-16 06:03:00,20.0,-99.9,30.61,East,81,13.0,18.0,-999,-99.99,,,-99.99,,2013-03-16 10:03:00,
2013-03-16 06:12:00,20.0,-99.9,29.91,East,81,13.0,18.0,-999,-99.99,,,-99.99,,2013-03-16 10:12:00,
2013-03-16 06:23:00,20.0,-99.9,30.62,ENE,78,13.0,19.0,-999,-99.99,,,-99.99,,2013-03-16 10:23:00,
2013-03-16 06:32:00,20.0,-99.9,29.92,ENE,78,13.0,19.0,-999,-99.99,,,-99.99,,2013-03-16 10:32:00,
2013-03-16 06:42:00,20.0,-99.9,30.61,ENE,72,14.0,18.0,-999,-99.99,,,-99.99,,2013-03-16 10:42:00,
2013-03-16 06:53:00,20.0,-99.9,30.61,ENE,72,14.0,18.0,-999,-99.99,,,-99.99,,2013-03-16 10:53:00,
2013-03-16 07:03:00,20.0,-99.9,30.62,ENE,76,17.0,20.0,-999,-99.99,,,-99.99,,2013-03-16 11:03:00,
2013-03-16 07:12:00,20.0,-99.9,29.92,ENE,76,17.0,20.0,-999,-99.99,,,-99.99,,2013-03-16 11:12:00,
2013-03-16 07:22:00,20.0,-99.9,29.92,ENE,76,17.0,20.0,-999,-99.99,,,-99.99,,2013-03-16 11:22:00,
2013-03-16 07:33:00,20.0,-99.9,30.63,East,87,14.0,20.0,-999,-99.99,,,-99.99,,2013-03-16 11:33:00,
2013-03-16 07:43:00,20.0,-99.9,29.93,East,87,14.0,20.0,-999,-99.99,,,-99.99,,2013-03-16 11:43:00,
2013-03-16 07:53:00,20.0,-99.9,30.63,East,87,14.0,20.0,-999,-99.99,,,-99.99,,2013-03-16 11:53:00,
2013-03-16 08:02:00,19.0,-99.9,30.64,East,84,10.0,18.0,-999,-99.99,,,-99.99,,2013-03-16 12:02:00,
2013-03-16 08:12:00,19.0,-99.9,29.94,East,84,10.0,18.0,-999,-99.99,,,-99.99,,2013-03-16 12:12:00,
2013-03-16 08:23:00,19.0,-99.9,29.94,East,84,10.0,18.0,-999,-99.99,,,-99.99,,2013-03-16 12:23:00,
2013-03-16 08:32:00,19.0,-99.9,30.64,ENE,78,14.0,20.0,-999,-99.99,,,-99.99,,2013-03-16 12:32:00,
2013-03-16 08:43:00,19.0,-99.9,29.94,ENE,78,14.0,20.0,-999,-99.99,,,-99.99,,2013-03-16 12:43:00,
2013-03-16 08:53:00,19.0,-99.9,29.94,ENE,78,14.0,20.0,-999,-99.99,,,-99.99,,2013-03-16 12:53:00,
2013-03-16 09:02:00,19.0,-99.9,30.66,ENE,72,15.0,18.0,-999,-99.99,,,-99.99,,2013-03-16 13:02:00,
2013-03-16 09:12:00,19.0,-99.9,29.96,ENE,72,15.0,18.0,-999,-99.99,,,-99.99,,2013-03-16 13:12:00,
2013-03-16 09:23:00,19.0,-99.9,30.67,East,80,14.0,20.0,-999,-99.99,,,-99.99,,2013-03-16 13:23:00,
2013-03-16 09:32:00,19.0,-99.9,29.97,East,80,14.0,20.0,-999,-99.99,,,-99.99,,2013-03-16 13:32:00,
2013-03-16 09:43:00,19.0,-99.9,29.97,East,80,14.0,20.0,-999,-99.99,,,-99.99,,2013-03-16 13:43:00,
2013-03-16 09:53:00,19.0,-99.9,30.67,East,80,14.0,20.0,-999,-99.99,,,-99.99,,2013-03-16 13:53:00,
2013-03-16 10:03:00,19.0,-99.9,30.67,East,83,15.0,21.0,-999,-99.99,,,-99.99,,2013-03-16 14:03:00,
2013-03-16 10:12:00,19.0,-99.9,29.97,East,83,15.0,22.0,-999,-99.99,,,-99.99,,2013-03-16 14:12:00,
2013-03-16 10:22:00,19.0,-99.9,29.97,East,83,15.0,22.0,-999,-99.99,,,-99.99,,2013-03-16 14:22:00,
2013-03-16 10:32:00,19.0,-99.9,30.67,ENE,69,17.0,22.0,-999,-99.99,,,-99.99,,2013-03-16 14:32:00,
2013-03-16 10:42:00,19.0,-99.9,29.97,ENE,69,17.0,22.0,-999,-99.99,,,-99.99,,2013-03-16 14:42:00,
2013-03-16 10:53:00,19.0,-99.9,29.97,ENE,69,17.0,22.0,-999,-99.99,,,-99.99,,2013-03-16 14:53:00,
2013-03-16 11:03:00,20.0,-99.9,30.69,ENE,70,13.0,18.0,-999,-99.99,,,-99.99,,2013-03-16 15:03:00,
2013-03-16 11:13:00,20.0,-99.9,29.99,ENE,70,13.0,18.0,-999,-99.99,,,-99.99,,2013-03-16 15:13:00,
2013-03-16 11:23:00,20.0,-99.9,30.69,ENE,69,14.0,21.0,-999,-99.99,,,-99.99,,2013-03-16 15:23:00,
2013-03-16 11:33:00,20.0,-99.9,30.69,ENE,69,14.0,21.0,-999,-99.99,,,-99.99,,2013-03-16 15:33:00,
2013-03-16 11:44:00,20.0,-99.9,30.69,ENE,69,14.0,21.0,-999,-99.99,,,-99.99,,2013-03-16 15:44:00,
2013-03-16 11:53:00,20.0,-99.9,30.69,ENE,69,14.0,21.0,-999,-99.99,,,-99.99,,2013-03-16 15:53:00,
2013-03-16 12:03:00,20.0,-99.9,30.70,ENE,59,13.0,17.0,-999,-99.99,,,-99.99,,2013-03-16 16:03:00,
2013-03-16 12:13:00,20.0,-99.9,30.00,ENE,59,13.0,17.0,-999,-99.99,,,-99.99,,2013-03-16 16:13:00,
2013-03-16 12:23:00,20.0,-99.9,30.00,ENE,59,13.0,17.0,-999,-99.99,,,-99.99,,2013-03-16 16:23:00,
2013-03-16 12:33:00,20.0,-99.9,30.00,ENE,59,13.0,17.0,-999,-99.99,,,-99.99,,2013-03-16 16:33:00,
2013-03-16 12:43:00,20.0,-99.9,30.70,NE,55,12.0,18.0,-999,-99.99,,,-99.99,,2013-03-16 16:43:00,
2013-03-16 12:53:00,20.0,-99.9,30.00,NE,55,12.0,18.0,-999,-99.99,,,-99.99,,2013-03-16 16:53:00,
2013-03-16 13:03:00,21.0,-99.9,30.71,NE,42,15.0,17.0,-999,-99.99,,,-99.99,,2013-03-16 17:03:00,
2013-03-16 13:13:00,21.0,-99.9,30.01,NE,42,15.0,17.0,-999,-99.99,,,-99.99,,2013-03-16 17:13:00,
2013-03-16 13:23:00,21.0,-99.9,30.01,NE,42,15.0,17.0,-999,-99.99,,,-99.99,,2013-03-16 17:23:00,
2013-03-16 13:33:00,21.0,-99.9,30.01,NE,44,12.0,19.0,-999,-99.99,,,-99.99,,2013-03-16 17:33:00,
2013-03-16 13:40:00,22.0,-99.9,30.02,NE,35,12.0,13.0,-999,-99.99,,,-99.99,,2013-03-16 17:40:00,
2013-03-16 13:43:00,21.0,-99.9,30.01,NE,44,12.0,19.0,-999,-99.99,,,-99.99,,2013-03-16 17:43:00,
2013-03-16 13:53:00,21.0,-99.9,30.71,NE,44,12.0,19.0,-999,-99.99,,,-99.99,,2013-03-16 17:53:00,
2013-03-16 14:03:00,22.0,-99.9,30.72,NE,35,12.0,13.0,-999,-99.99,,,-99.99,,2013-03-16 18:03:00,
2013-03-16 14:13:00,22.0,-99.9,30.02,NE,35,12.0,13.0,-999,-99.99,,,-99.99,,2013-03-16 18:13:00,
2013-03-16 14:23:00,22.0,-99.9,30.02,NE,35,12.0,13.0,-999,-99.99,,,-99.99,,2013-03-16 18:23:00,
2013-03-16 14:33:00,22.0,-99.9,30.02,NE,35,12.0,13.0,-999,-99.99,,,-99.99,,2013-03-16 18:33:00,
2013-03-16 14:40:00,22.0,-99.9,30.01,North,6,8.0,11.0,-999,-99.99,,,-99.99,,2013-03-16 18:40:00,
2013-03-16 15:02:00,22.0,-99.9,30.71,North,6,8.0,11.0,-999,-99.99,,,-99.99,,2013-03-16 19:02:00,
2013-03-16 15:12:00,22.0,-99.9,30.01,North,6,8.0,11.0,-999,-99.99,,,-99.99,,2013-03-16 19:12:00,
2013-03-16 15:23:00,22.0,-99.9,30.01,North,6,8.0,11.0,-999,-99.99,,,-99.99,,2013-03-16 19:23:00,
2013-03-16 15:33:00,22.0,-99.9,30.01,North,6,8.0,11.0,-999,-99.99,,,-99.99,,2013-03-16 19:33:00,
2013-03-16 15:40:00,23.0,-99.9,30.01,NNE,18,9.0,14.0,-999,-99.99,,,-99.99,,2013-03-16 19:40:00,
2013-03-16 16:03:00,23.0,-99.9,30.71,NNE,18,9.0,14.0,-999,-99.99,,,-99.99,,2013-03-16 20:03:00,
2013-03-16 16:13:00,23.0,-99.9,30.01,NNE,18,9.0,14.0,-999,-99.99,,,-99.99,,2013-03-16 20:13:00,
2013-03-16 16:22:00,23.0,-99.9,30.01,NNE,18,9.0,14.0,-999,-99.99,,,-99.99,,2013-03-16 20:22:00,
2013-03-16 16:33:00,23.0,-99.9,30.01,NNE,18,9.0,14.0,-999,-99.99,,,-99.99,,2013-03-16 20:33:00,
2013-03-16 16:40:00,24.0,-99.9,30.01,NW,325,9.0,12.0,-999,-99.99,,,-99.99,,2013-03-16 20:40:00,
2013-03-16 17:02:00,24.0,-99.9,30.71,NW,325,9.0,12.0,-999,-99.99,,,-99.99,,2013-03-16 21:02:00,
2013-03-16 17:12:00,24.0,-99.9,30.01,NW,325,9.0,12.0,-999,-99.99,,,-99.99,,2013-03-16 21:12:00,
2013-03-16 17:23:00,24.0,-99.9,30.01,NW,325,9.0,12.0,-999,-99.99,,,-99.99,,2013-03-16 21:23:00,
2013-03-16 17:33:00,24.0,-99.9,30.01,NW,325,9.0,12.0,-999,-99.99,,,-99.99,,2013-03-16 21:33:00,
2013-03-16 17:40:00,24.0,-99.9,30.01,NW,311,7.0,11.0,-999,-99.99,,,-99.99,,2013-03-16 21:40:00,
2013-03-16 18:03:00,24.0,-99.9,30.71,NW,311,7.0,11.0,-999,-99.99,,,-99.99,,2013-03-16 22:03:00,
2013-03-16 18:13:00,24.0,-99.9,30.01,NW,311,7.0,11.0,-999,-99.99,,,-99.99,,2013-03-16 22:13:00,
2013-03-16 18:23:00,24.0,-99.9,30.01,NW,311,7.0,11.0,-999,-99.99,,,-99.99,,2013-03-16 22:23:00,
2013-03-16 18:33:00,24.0,-99.9,30.01,NW,311,7.0,11.0,-999,-99.99,,,-99.99,,2013-03-16 22:33:00,
2013-03-16 18:40:00,23.0,-99.9,30.01,West,278,9.0,12.0,-999,-99.99,,,-99.99,,2013-03-16 22:40:00,
2013-03-16 19:03:00,23.0,-99.9,30.71,West,278,9.0,12.0,-999,-99.99,,,-99.99,,2013-03-16 23:03:00,
2013-03-16 19:13:00,23.0,-99.9,30.01,West,278,9.0,12.0,-999,-99.99,,,-99.99,,2013-03-16 23:13:00,
2013-03-16 19:23:00,23.0,-99.9,30.01,West,278,9.0,12.0,-999,-99.99,,,-99.99,,2013-03-16 23:23:00,
2013-03-16 19:33:00,23.0,-99.9,30.01,West,278,9.0,12.0,-999,-99.99,,,-99.99,,2013-03-16 23:33:00,
2013-03-16 19:40:00,22.0,-99.9,30.00,WSW,243,7.0,10.0,-999,-99.99,,,-99.99,,2013-03-16 23:40:00,
2013-03-16 20:02:00,22.0,-99.9,30.70,WSW,243,7.0,10.0,-999,-99.99,,,-99.99,,2013-03-17 00:02:00,
2013-03-16 20:13:00,22.0,-99.9,30.00,WSW,243,7.0,10.0,-999,-99.99,,,-99.99,,2013-03-17 00:13:00,
2013-03-16 20:23:00,22.0,-99.9,30.00,WSW,243,7.0,10.0,-999,-99.99,,,-99.99,,2013-03-17 00:23:00,
2013-03-16 20:33:00,22.0,-99.9,30.00,WSW,243,7.0,10.0,-999,-99.99,,,-99.99,,2013-03-17 00:33:00,
2013-03-16 20:40:00,19.0,-99.9,29.99,SSW,207,5.0,8.0,-999,-99.99,,,-99.99,,2013-03-17 00:40:00,
2013-03-16 21:03:00,19.0,-99.9,30.69,SSW,207,5.0,8.0,-999,-99.99,,,-99.99,,2013-03-17 01:03:00,
2013-03-16 21:12:00,19.0,-99.9,29.99,SSW,207,5.0,8.0,-999,-99.99,,,-99.99,,2013-03-17 01:12:00,
2013-03-16 21:23:00,19.0,-99.9,29.99,SSW,207,5.0,8.0,-999,-99.99,,,-99.99,,2013-03-17 01:23:00,
2013-03-16 21:33:00,19.0,-99.9,29.99,SSW,207,5.0,8.0,-999,-99.99,,,-99.99,,2013-03-17 01:33:00,
2013-03-16 22:03:00,21.0,-99.9,30.70,SSW,207,5.0,10.0,-999,-99.99,,,-99.99,,2013-03-17 02:03:00,
2013-03-16 22:13:00,21.0,-99.9,30.00,SSW,207,5.0,10.0,-999,-99.99,,,-99.99,,2013-03-17 02:13:00,
2013-03-16 22:23:00,22.0,-99.9,30.71,SSW,212,8.0,17.0,-999,-99.99,,,-99.99,,2013-03-17 02:23:00,
2013-03-16 22:33:00,22.0,-99.9,30.01,SSW,212,8.0,17.0,-999,-99.99,,,-99.99,,2013-03-17 02:33:00,
2013-03-16 22:40:00,22.0,-99.9,30.03,SW,220,6.0,13.0,-999,-99.99,,,-99.99,,2013-03-17 02:40:00,
2013-03-16 22:43:00,22.0,-99.9,30.01,SSW,212,8.0,17.0,-999,-99.99,,,-99.99,,2013-03-17 02:43:00,
2013-03-16 22:53:00,22.0,-99.9,30.01,SSW,212,8.0,17.0,-999,-99.99,,,-99.99,,2013-03-17 02:53:00,
2013-03-16 23:03:00,22.0,-99.9,30.73,SW,220,6.0,13.0,-999,-99.99,,,-99.99,,2013-03-17 03:03:00,
2013-03-16 23:12:00,22.0,-99.9,30.03,SW,220,6.0,13.0,-999,-99.99,,,-99.99,,2013-03-17 03:12:00,
2013-03-16 23:23:00,22.0,-99.9,30.03,SW,220,6.0,13.0,-999,-99.99,,,-99.99,,2013-03-17 03:23:00,
2013-03-16 23:34:00,22.0,-99.9,30.03,SW,220,6.0,13.0,-999,-99.99,,,-99.99,,2013-03-17 03:34:00,